Other Public Products
Issued by NWS Grand Forks, ND

Home | Current Version | Previous Version | Text Only | Print | Product List | Glossary Off
Versions: 1 2 3 4 5 6 7 8 9 10 11 12 13 14 15 16 17 18 19 20 21 22 23 24 25 26 27 28 29 30 31 32 33 34 35 36 37 38 39 40 41 42 43 44 45 46 47 48 49 50

000
FPUS83 KFGF 012110
OPUFGF
PRAIRIE TO PINES WEATHER ROUNDUP
NATIONAL WEATHER SERVICE EASTERN NORTH DAKOTA/GRAND FORKS ND
400 PM CDT FRI AUG 01 2014

 **SATELLITE DATA USED TO AUGMENT SKY COVER AT AUTOMATED STATIONS**
 *****  WEATHER ACROSS EASTERN NORTH DAKOTA  *****

CITY           SKY/WX    TMP DP  RH WIND       PRES   REMARKS
GRAND FORKS    MOSUNNY   82  60  47 VRB5      30.06F
GRAND FORKS AF SUNNY     81  62  51 VRB1      30.08S
GRAND CITY NWS   N/A     82 N/A N/A VRB9        N/A
BUXTON         NOT AVBL
DEVILS LAKE    MOSUNNY   81  57  44 S8        30.08S
FARGO          SUNNY     83  58  42 N8        30.06S
WAHPETON ARPT  PTCLDY    82  55  39 NW8       30.06F
$$

 *****  WEATHER ACROSS CENTRAL AND WESTERN NORTH DAKOTA  *****

CITY           SKY/WX    TMP DP  RH WIND       PRES   REMARKS
JAMESTOWN      MOSUNNY   82  57  42 VRB3      30.08S
BISMARCK       PTSUNNY   91  56  30 VRB7      30.05F
MINOT          PTSUNNY   80  57  45 E7        30.08F
MINOT AFB      PTSUNNY   80  59  50 SE6       30.08F
GARRISON         N/A     80  63  55 N6        30.10R
WILLISTON      MOSUNNY   83  54  36 SE7       30.09S
DICKINSON      SUNNY     85  61  44 E13       30.07S
HETTINGER      MOSUNNY   87  52  29 VRB6      30.06F
$$

 *****  OTHER OBSERVATIONS NORTHEAST NORTH DAKOTA  *****

CITY           SKY/WX    TMP DP  RH WIND       PRES   REMARKS
WALHALLA       FAIR      81  63  54 CALM        N/A
LANGDON        FAIR      84  55  37 N3        30.10S
CAVALIER       FAIR      82  59  44 NW5       30.07S
GRAFTON        FAIR      81  59  47 NE5       30.07S
CANDO          FAIR      79  61  53 SE7       30.10S
FORT TOTTEN      N/A     82  62  50 N2        29.95S
ROLLA            N/A     77  57  50 SE7       30.12S
RUGBY          FAIR      77  59  53 SE5       30.09S
 ***** THE ABOVE OBSERVATIONS ARE NON NWS ARE NOT QUALITY
        CONTROLLED AND MAY MIS-REPORT RAIN FOR SNOW...
$$

 *****  OTHER OBSERVATIONS SOUTHEAST NORTH DAKOTA *****

CITY           SKY/WX    TMP DP  RH WIND       PRES   REMARKS
COOPERSTOWN    NOT AVBL
VALLEY CITY    FAIR      82  61  47 NE10      30.08F
OAKES          NOT AVBL
GWINNER        PTCLDY   N/A N/A N/A CALM      30.08F
SHEYENNE NWR     N/A     85  60  42 N6        29.95S
BUFFALO        NOT AVBL
WYNDMERE       NOT AVBL
 ***** THE ABOVE OBSERVATIONS ARE NON NWS ARE NOT QUALITY
       CONTROLLED AND MAY MIS-REPORT RAIN FOR SNOW...
$$

  *****  WEATHER ACROSS NORTHERN MINNESOTA  *****

CITY           SKY/WX    TMP DP  RH WIND       PRES   REMARKS
FLAG ISLAND    SUNNY     77  45  31 CALM      30.06F
WARROAD        SUNNY     75  57  53 E7        30.08S
ROSEAU         MOSUNNY   81  54  39 NE3       30.07S
HALLOCK        MOSUNNY   81  59  47 W5        30.06S
THF RVR FALLS  MOSUNNY   79  54  41 E6        30.08S
HALSTAD          N/A     83  54  35 N5          N/A
FOSSTON        MOSUNNY   79  61  53 CALM      30.09S
BAUDETTE       SUNNY     79  45  29 N8        30.09S
WASKISH        SUNNY     79  59  50 CALM      30.07S
CROOKSTON      MOSUNNY   81  57  44 N6        30.08S
$$
  *****  WEATHER ACROSS CENTRAL AND WEST MINNESOTA  *****

CITY           SKY/WX    TMP DP  RH WIND       PRES   REMARKS
BEMIDJI        SUNNY     78  53  40 NW8       30.07S
PARK RAPIDS    PTSUNNY   79  53  40 N12G18    30.07S
WADENA         SUNNY     81  55  41 NW7       30.07S
DETROIT LAKES  SUNNY     79  55  44 N5        30.10S
MOORHEAD       SUNNY     81  57  44 NE8       30.07F
FERGUS FALLS   MOSUNNY   81  57  44 NW10      30.06S
ELBOW LAKE     FAIR      79  61  53 N6        30.07S
MORRIS MN      MOSUNNY   84  57  39 W6        30.06F
STAPLES        SUNNY     82  50  32 W7        30.06S
WHEATON        MOSUNNY   81  61  50 W8        30.08F
$$
  *****  WEATHER ELSEWHERE ACROSS MINNESOTA  *****

CITY           SKY/WX    TMP DP  RH WIND       PRES   REMARKS
DULUTH         SUNNY     73  56  54 SE7       30.06F
INTRNTL FALLS  SUNNY     78  49  35 CALM      30.06F
ELY            CLOUDY    75  52  43 W7        30.06S
CLOQUET        PTSUNNY   75  55  50 SW6       30.06S
BRAINERD       SUNNY     79  58  48 VRB5      30.07S
HIBBING        MOSUNNY   79  57  46 N3        30.05F
ALEXANDRIA     MOSUNNY   79  58  48 NW8       30.09F
SAINT CLOUD    PTSUNNY   87  57  35 VRB3      30.04F
MINNEAPOLIS    MOSUNNY   87  55  33 W8        30.05S
$$

  *****  WEATHER ACROSS SOUTH DAKOTA  *****

CITY           SKY/WX    TMP DP  RH WIND       PRES   REMARKS
SIOUX FALLS    MOSUNNY   81  56  42 CALM      30.09F
BROOKINGS      NOT AVBL
WATERTOWN      PTSUNNY   82  54  37 VRB3      30.10S
HURON          MOSUNNY   85  57  38 CALM      30.06F
SISSETON         N/A     84  58  40 VRB3      30.07S
ABERDEEN       SUNNY     84  53  34 CALM      30.07F
MITCHELL       SUNNY     84  58  40 SE5       30.08F
PIERRE         SUNNY     92  58  31 SE16      30.00F HX  91
MOBRIDGE       SUNNY     86  59  39 SE12      30.01F
RAPID CITY     PTSUNNY   85  51  31 S16G23    30.08S
$$

  *****  SOME WEATHER IN NEARBY STATES *****

CITY           SKY/WX    TMP DP  RH WIND       PRES   REMARKS
GLASGOW MT     SUNNY     90  53  28 SE8       30.06F
GREAT FALLS MT SUNNY     89  42  19 NW3       30.15F
CHEYENNE WY    MOSUNNY   77  39  25 SW10      30.30F
SCOTTSBLUFF NE SUNNY     90  40  17 E10       30.16F
OMAHA NE       MOSUNNY   84  58  40 NE8       30.08F
DES MOINES IA  MOSUNNY   84  61  45 SE7       30.07F
DAVENPORT IA   MOSUNNY   82  61  48 W5        30.07S
CHICAGO IL     PTSUNNY   78  57  48 SE7       30.07S
EAU CLAIRE WI  PTSUNNY   82  61  48 NW6       30.04S
LA CROSSE WI   SUNNY     84  58  40 W10       30.04F
$$

  *****  SOME NATIONAL WEATHER *****

CITY           SKY/WX    TMP DP  RH WIND       PRES   REMARKS
LA GUARDIA NY  CLOUDY    77  67  71 S14       30.21R
RALEIGH NC     RAIN      65  62  90 CALM      30.10S VSB 1
ATLANTA GA     PTSUNNY   78  67  68 E8        30.05F
NEW ORLEANS LA CLOUDY    85  67  54 S9        29.98F
OKLAHOMA CITY  PTSUNNY   84  62  47 S7        30.06F
ALBUQUERQUE NM MOSUNNY   79  52  38 VRB3      30.22F
SALT LAKE CITY MOSUNNY   89  49  25 VRB6      30.11F
LOS ANGELES CA MOSUNNY   75  63  66 W10       29.91F
BOISE ID       SUNNY     94  45  18 W7        30.03F HX  90
SEATTLE WA     CLOUDY    77  52  41 NW7       30.06R
$$

*** WEATHER ACROSS MANITOBA...SASKATCHEWAN AND ONTARIO ***
                ***ONTARIO***

CITY           SKY/WX    TMP DP  RH WIND       PRES   REMARKS
GERALDTON      PTSUNNY   68  50  52 N5        30.06S
THUNDER BAY    MOSUNNY   72  55  56 S8        30.07R
SIOUX LOOKOUT  MOSUNNY   75  48  38 W7        30.06S
TORONTO        PTSUNNY   72  61  68 NE17G23   30.08R THUNDER
BIG TROUT LK   NOT AVBL
PICKLE LAKE    MOSUNNY   73  46  38 NW6       30.03S
DRYDEN         NOT AVBL
KENORA         NOT AVBL
$$
                *** MANITOBA***

CITY           SKY/WX    TMP DP  RH WIND       PRES   REMARKS
BRANDON        PTSUNNY   82  55  39 W3        30.08S
DAUPHIN        LGT RAIN  75  64  69 N6G17     30.02F
ISLAND LAKE    CLOUDY    77  52  41 NE2       30.00F
PILOT MOUND      N/A     81  57  44 S3          N/A
THE PAS        CLOUDY    68  64  88 N7        30.03  THUNDER
THOMPSON       LGT RAIN  68  68 100 NW6       29.98S
WINNIPEG       PTSUNNY   84  61  45 NW7       30.04F
LYNN LAKE      MOSUNNY   73  48  40 N13G22    30.07F
CHURCHILL      CLOUDY    57  55  94 N16       29.98R
GILLAM         LGT RAIN  66  63  88 SE5       29.93
$$
                ***SASKATCHEWAN***

CITY           SKY/WX    TMP DP  RH WIND       PRES   REMARKS
ESTEVAN        MOSUNNY   81  61  50 SE2       30.11S
KINDERSLEY     PTSUNNY   72  63  73 NW3       30.18F
LLOYDMINSTER   PTSUNNY   70  59  68 N8        30.21S SMOKE
PRINCE ALBERT  LGT RAIN  73  64  73 W3        30.12S
REGINA         MOSUNNY   84  59  42 S8        30.08F


USA.gov is the U.S. government's official web portal to all federal, state and local government web resources and services.